CW9927 Weather Reports


time (UTC)temp
F
wind
direction
speed
knots
gust
knots
rain 1hr
in
rain 24hr
in
rain mn
in
humidity
%
barometer
mb
20260510060117 55 0.0 0.0 0.00 0.00 0.00 82 1015.5
20260510055117 55 0.0 0.0 0.00 0.00 0.00 81 1015.5
20260510054118 55 0.0 0.0 0.00 0.00 0.00 80 1015.4
20260510053115 56 0.0 0.0 0.00 0.00 0.00 80 1015.4
20260510052118 56 0.0 0.0 0.00 0.00 0.00 79 1015.4
20260510051118 56 0.0 0.0 0.00 0.00 0.00 79 1015.4
20260510050117 57 0.0 0.0 0.00 0.00 0.00 79 1015.3
20260510045117 57 0.0 0.0 0.00 0.00 0.00 78 1015.2
20260510044118 58 0.0 0.0 0.00 0.00 0.00 77 1015.0
20260510043117 58 0.0 0.0 0.00 0.00 0.00 77 1014.9
20260510042117 59 0.0 0.0 0.00 0.00 0.00 76 1014.8
20260510041118 59 0.0 0.0 0.00 0.00 0.00 75 1014.7
20260510040117 60 0.0 0.0 0.00 0.00 0.00 74 1014.6
20260510035117 60 0.0 0.0 0.00 0.00 0.00 73 1014.5
20260510034118 61 0.0 0.0 0.00 0.00 0.00 73 1014.4
20260510033117 61 0.0 0.0 0.00 0.00 0.00 72 1014.3
20260510032117 62 0.0 0.0 0.00 0.00 0.00 71 1014.1
20260510031138 63 0.0 0.0 0.00 0.00 0.00 70 1014.0
20260510030117 64 0.0 0.0 0.00 0.00 0.00 69 1013.9
20260510025117 65 0.0 0.0 0.00 0.00 0.00 68 1013.7
20260510024138 66 0.0 0.0 0.00 0.00 0.00 68 1013.7
20260510023117 66 0.0 0.0 0.00 0.00 0.00 67 1013.6
20260510022118 67 0.0 0.0 0.00 0.00 0.00 66 1013.5
20260510021117 68 0.0 0.0 0.00 0.00 0.00 66 1013.4
20260510020138 69 0.0 0.0 0.00 0.00 0.00 65 1013.3
20260510015116 70 0.0 0.0 0.00 0.00 0.00 63 1013.3
20260510014117 71 0.0 0.0 0.00 0.00 0.00 62 1013.3
20260510013118 71 0.0 0.0 0.00 0.00 0.00 61 1013.2
20260510012117 71 0.0 0.0 0.00 0.00 0.00 61 1013.1
20260510011117 72 0.0 0.0 0.00 0.00 0.00 60 1013.1
20260510005118 74 0.0 0.0 0.00 0.00 0.00 59 1013.0
20260510004118 75 0.0 0.0 0.00 0.00 0.00 57 1013.0
20260510003121 76 0.0 0.0 0.00 0.00 0.00 57 1013.0
20260510002118 76 0.0 0.0 0.00 0.00 0.00 55 1013.0
20260510001118 76 0.0 0.0 0.00 0.00 0.00 55 1013.0
20260510000117 76 0.0 0.0 0.00 0.00 0.00 55 1013.1
20260509235138 76 0.0 0.0 0.00 0.00 0.00 55 1013.0
20260509234117 76 0.0 0.0 0.00 0.00 0.00 55 1013.1
20260509233117 76 0.0 0.0 0.00 0.00 0.00 54 1013.1
20260509232117 77 0.0 0.0 0.00 0.00 0.00 54 1013.0
20260509231117 78 0.0 0.0 0.00 0.00 0.00 53 1013.1
20260509230143 79 0.0 0.0 0.00 0.00 0.00 52 1013.1
20260509225138 79 0.0 0.0 0.00 0.00 0.00 53 1013.1
20260509224117 80 0.0 0.0 0.00 0.00 0.00 52 1013.2
20260509223118 80 0.0 0.0 0.00 0.00 0.00 51 1013.3
20260509222117 82 0.0 0.0 0.00 0.00 0.00 51 1013.4
20260509221137 81 0.0 0.0 0.00 0.00 0.00 51 1013.5
20260509220117 81 0.0 0.0 0.00 0.00 0.00 51 1013.6
20260509215118 81 0.0 0.0 0.00 0.00 0.00 51 1013.7
20260509214158 81 0.0 0.0 0.00 0.00 0.00 52 1013.7
20260509213117 81 0.0 0.0 0.00 0.00 0.00 50 1013.9
20260509212118 80 0.0 0.0 0.00 0.00 0.00 51 1014.0
20260509211117 79 0.0 0.0 0.00 0.00 0.00 52 1014.1
20260509210158 78 0.0 0.0 0.00 0.00 0.00 54 1014.3
20260509205117 78 0.0 0.0 0.00 0.00 0.00 53 1014.4
20260509204138 77 0.0 0.0 0.00 0.00 0.00 53 1014.5
20260509203117 76 0.0 0.0 0.00 0.00 0.00 54 1014.6
20260509202117 75 0.0 0.0 0.00 0.00 0.00 54 1014.8
20260509201117 74 0.0 0.0 0.00 0.00 0.00 55 1014.9
20260509200117 74 0.0 0.0 0.00 0.00 0.00 56 1015.0
20260509195118 74 0.0 0.0 0.00 0.00 0.00 57 1015.1
20260509194117 73 0.0 0.0 0.00 0.00 0.00 59 1015.2
20260509193117 72 0.0 0.0 0.00 0.00 0.00 59 1015.2
20260509192117 71 0.0 0.0 0.00 0.00 0.00 59 1015.5
20260509191118 70 0.0 0.0 0.00 0.00 0.00 62 1015.5
20260509185117 67 0.0 0.0 0.00 0.00 0.00 67 1015.8
20260509184117 66 0.0 0.0 0.00 0.00 0.00 66 1015.9
20260509183137 65 0.0 0.0 0.00 0.00 0.00 70 1016.0
20260509182116 64 0.0 0.0 0.00 0.00 0.00 73 1016.1
20260509181116 63 0.0 0.0 0.00 0.00 0.00 76 1016.2
20260509180116 61 0.0 0.0 0.00 0.00 0.00 79 1016.4
20260509175137 60 0.0 0.0 0.00 0.00 0.00 82 1016.5
20260509174118 59 0.0 0.0 0.00 0.00 0.00 85 1016.5
20260509173116 57 0.0 0.0 0.00 0.00 0.00 88 1016.5
20260509172116 56 0.0 0.0 0.00 0.00 0.00 90 1016.6
20260509171116 55 0.0 0.0 0.00 0.00 0.00 92 1016.7
20260509170116 54 0.0 0.0 0.00 0.00 0.00 92 1016.7
20260509165117 53 0.0 0.0 0.00 0.00 0.00 92 1016.9
20260509164117 53 0.0 0.0 0.00 0.00 0.00 93 1016.9
20260509163117 52 0.0 0.0 0.00 0.00 0.00 93 1017.0
20260509162117 51 0.0 0.0 0.00 0.00 0.00 92 1017.0
20260509161118 51 0.0 0.0 0.00 0.00 0.00 92 1017.1
20260509160118 51 0.0 0.0 0.00 0.00 0.00 92 1017.1
20260509155117 51 0.0 0.0 0.00 0.00 0.00 92 1017.1
20260509154117 51 0.0 0.0 0.00 0.00 0.00 92 1017.2
20260509153117 51 0.0 0.0 0.00 0.00 0.00 93 1017.1
20260509152117 50 0.0 0.0 0.00 0.00 0.00 92 1017.2
20260509151137 49 0.0 0.0 0.00 0.00 0.00 92 1017.2
20260509150138 49 0.0 0.0 0.00 0.00 0.00 92 1017.3
20260509145137 48 0.0 0.0 0.00 0.00 0.00 92 1017.2
20260509144138 48 0.0 0.0 0.00 0.00 0.00 92 1017.1
20260509143117 47 0.0 0.0 0.00 0.00 0.00 92 1017.2
20260509142117 46 0.0 0.0 0.00 0.00 0.00 92 1017.1
20260509141117 45 0.0 0.0 0.00 0.00 0.00 91 1017.1
20260509140117 45 0.0 0.0 0.00 0.00 0.00 91 1017.0
20260509135117 45 0.0 0.0 0.00 0.00 0.00 90 1016.9
20260509134117 44 0.0 0.0 0.00 0.00 0.00 90 1016.8
20260509133117 44 0.0 0.0 0.00 0.00 0.00 90 1016.6
20260509132137 44 0.0 0.0 0.00 0.00 0.00 89 1016.6
20260509131117 44 0.0 0.0 0.00 0.00 0.00 89 1016.4
20260509125136 44 0.0 0.0 0.00 0.00 0.00 89 1016.3
20260509124116 45 0.0 0.0 0.00 0.00 0.00 89 1016.3
20260509123116 45 0.0 0.0 0.00 0.00 0.00 89 1016.4
20260509122136 45 0.0 0.0 0.00 0.00 0.00 89 1016.3
20260509121116 45 0.0 0.0 0.00 0.00 0.00 89 1016.3
20260509120116 45 0.0 0.0 0.00 0.00 0.00 88 1016.3
20260509115116 46 0.0 0.0 0.00 0.00 0.00 89 1016.3
20260509114116 46 0.0 0.0 0.00 0.00 0.00 88 1016.3
20260509113117 46 0.0 0.0 0.00 0.00 0.00 88 1016.4
20260509112116 46 0.0 0.0 0.00 0.00 0.00 88 1016.5
20260509111116 47 0.0 0.0 0.00 0.00 0.00 88 1016.5
20260509110136 47 0.0 0.0 0.00 0.00 0.00 88 1016.5
20260509105137 47 0.0 0.0 0.00 0.00 0.00 88 1016.6
20260509104117 47 0.0 0.0 0.00 0.00 0.00 88 1016.6
20260509103137 47 0.0 0.0 0.00 0.00 0.00 88 1016.7
20260509102117 47 0.0 0.0 0.00 0.00 0.00 88 1016.7
20260509101117 47 0.0 0.0 0.00 0.00 0.00 87 1016.8
20260509100118 47 0.0 0.0 0.00 0.00 0.00 87 1016.8
20260509095138 48 0.0 0.0 0.00 0.00 0.00 87 1016.8
20260509094117 48 0.0 0.0 0.00 0.00 0.00 87 1016.9
20260509093138 48 0.0 0.0 0.00 0.00 0.00 87 1017.0
20260509092117 49 0.0 0.0 0.00 0.00 0.00 87 1017.0
20260509091137 49 0.0 0.0 0.00 0.00 0.00 87 1017.1
20260509090117 49 0.0 0.0 0.00 0.00 0.00 87 1017.1
20260509085117 49 0.0 0.0 0.00 0.00 0.00 87 1017.1
20260509084117 49 0.0 0.0 0.00 0.00 0.00 86 1017.2
20260509083117 49 0.0 0.0 0.00 0.00 0.00 86 1017.3
20260509082117 50 0.0 0.0 0.00 0.00 0.00 86 1017.4
20260509081117 50 0.0 0.0 0.00 0.00 0.00 86 1017.3
20260509080117 51 0.0 0.0 0.00 0.00 0.00 86 1017.3
20260509075117 51 0.0 0.0 0.00 0.00 0.00 86 1017.4
20260509074117 51 0.0 0.0 0.00 0.00 0.00 85 1017.4
20260509073137 51 0.0 0.0 0.00 0.00 0.00 85 1017.3
20260509072138 51 0.0 0.0 0.00 0.00 0.00 85 1017.3
20260509071117 52 0.0 0.0 0.00 0.00 0.00 85 1017.3
20260509064138 52 0.0 0.0 0.00 0.00 0.00 84 1017.4
20260509063115 53 0.0 0.0 0.00 0.00 0.00 84 1017.4
20260509062117 53 0.0 0.0 0.00 0.00 0.00 84 1017.4
20260509061116 53 0.0 0.0 0.00 0.00 0.00 83 1017.5